Hourly Weather Roundup
Issued by NWS Central Illinois

Home | Current Version | Previous Version | Graphics & Text | Print | Product List | Glossary On
Versions: 1 2 3 4 5 6 7 8 9 10 11 12 13 14 15 16 17 18 19 20 21 22 23 24 25 26 27 28 29 30 31 32 33 34 35 36 37 38 39 40 41 42 43 44 45 46 47 48 49 50
000
NZUS43 KILX 060410
HWRILX

AREA WEATHER ROUNDUP
NATIONAL WEATHER SERVICE, LINCOLN IL
1000 PM CST THU MAR 05 2015


CITY           SKY/WX    TMP DP  RH WIND       PRES   REMARKS
BLOOMINGTON    PTCLDY     5  -1  76 CALM      30.57S
CHAMPAIGN      MOCLDY    -5  -8  87 SW5       30.58R WCI -16
DECATUR        CLOUDY     2  -6  69 CALM      30.59S
EFFINGHAM      PTCLDY     5  -2  71 CALM      30.62S
FLORA          PTCLDY    10   3  74 CALM      30.62S
GALESBURG      FAIR      -1  -4  87 S3        30.55S
JACKSONVILLE   PTCLDY     3  -4  72 E5        30.58F WCI  -6
LACON          MOCLDY     1  -5  75 CALM      30.58S
LAWRENCEVILLE  PTCLDY     9   2  73 N3        30.62R
LITCHFIELD     PTCLDY     6  -1  72 CALM      30.58F
$$


CITY           SKY/WX    TMP DP  RH WIND       PRES   REMARKS
LINCOLN        MOCLDY     7   0  74 CALM      30.62S
MACOMB         PTCLDY     1  -3  85 CALM      30.58F
MATTOON        MOCLDY     4  -2  76 CALM      30.57F
MT CARMEL AP   PTCLDY    10   3  72 CALM      30.62R
OLNEY-NOBLE AP FAIR       9   1  72 CALM      30.61F
PARIS          PTCLDY    -4  -7  86 CALM      30.60S
PEORIA         MOCLDY     7  -3  64 CALM      30.59S
PONTIAC        PTCLDY     2  -2  82 SW3       30.59R
RANTOUL        MOCLDY     1  -4  81 CALM      30.58R
ROBINSON       PTCLDY     5   2  86 N5        30.62S WCI  -4
SPRINGFIELD    MOCLDY     4  -3  73 CALM      30.60S
TAYLORVILLE    MOCLDY     5   1  85 CALM      30.60R
$$

...REGIONAL REPORTS...


CITY           SKY/WX    TMP DP  RH WIND       PRES   REMARKS
CHICAGO O`HARE PTCLDY     8  -2  63 W9        30.54R WCI  -5
KANKAKEE       PTCLDY     1  -4  78 SW3       30.58S
MOLINE         PTCLDY     3  -4  72 SE3       30.55F
MOUNT VERNON   MOCLDY     9   0  66 CALM      30.61R
PITTSFIELD     PTCLDY    11   2  66 CALM      30.58S
QUINCY         PTCLDY     9   0  67 SE6       30.56R WCI  -1
ROCKFORD       MOCLDY     2  -6  69 SW5       30.54S WCI  -8
$$


CITY           SKY/WX    TMP DP  RH WIND       PRES   REMARKS
BURLINGTON     PTCLDY     7  -1  70 SE5       30.54F WCI  -2
CEDAR RAPIDS   MOCLDY     1  -4  79 SE5       30.50S WCI  -9
DES MOINES     PTCLDY    16   4  59 SE9       30.45F WCI   4
KIRKSVILLE     CLEAR     15  10  80 SE7       30.52S WCI   5
OTTUMWA        CLEAR      9   1  70 SE6       30.50S WCI  -1
ST LOUIS       CLEAR     16   4  59 E5        30.60R WCI   9
$$


CITY           SKY/WX    TMP DP  RH WIND       PRES   REMARKS
TERRE HAUTE    PTCLDY     5   0  79 NE5       30.59F WCI  -4
EVANSVILLE     MOCLDY    13   2  61 N8        30.62S WCI   2
INDIANAPOLIS   MOCLDY     9   0  67 NW7       30.54S WCI  -2
LAFAYETTE      MOCLDY     4  -1  80 W5        30.58R WCI  -5
MADISON        PTCLDY     6  -6  57 SW6       30.48R WCI  -4
MILWAUKEE      PTCLDY     7  -6  55 W9        30.51R WCI  -7
$$




USA.gov is the U.S. government's official web portal to all federal, state and local government web resources and services.